Time,TemperatureF,DewpointF,PressureIn,WindDirection,WindDirectionDegrees,WindSpeedMPH,WindSpeedGustMPH,Humidity,HourlyPrecipIn,Conditions,Clouds,dailyrainin,SoftwareType,DateUTC
2013-09-26 00:01:00,46.1,44.2,29.97,NE,48,0.0,0.0,93,0.00,CLR,,0.00,WeatherDisplay:10.37,2013-09-26 04:01:00,
2013-09-26 00:06:00,46.1,44.2,29.97,NE,48,0.0,0.0,93,0.00,CLR,,0.00,WeatherDisplay:10.37,2013-09-26 04:06:00,
2013-09-26 00:11:00,46.0,44.1,29.97,NE,48,0.0,0.0,93,0.00,CLR,,0.00,WeatherDisplay:10.37,2013-09-26 04:11:00,
2013-09-26 00:16:00,45.9,44.0,29.97,NE,48,0.0,0.0,93,0.00,CLR,,0.00,WeatherDisplay:10.37,2013-09-26 04:16:00,
2013-09-26 00:21:00,45.8,43.9,29.97,NE,48,0.0,0.0,93,0.00,CLR,,0.00,WeatherDisplay:10.37,2013-09-26 04:21:00,
2013-09-26 00:26:00,45.8,43.9,29.97,NE,48,0.0,0.0,93,0.00,CLR,,0.00,WeatherDisplay:10.37,2013-09-26 04:26:00,
2013-09-26 00:31:00,45.7,43.8,29.97,NE,48,0.0,0.0,93,0.00,CLR,,0.00,WeatherDisplay:10.37,2013-09-26 04:31:00,
2013-09-26 00:36:00,45.6,43.7,29.97,NE,48,0.0,0.0,93,0.00,CLR,,0.00,WeatherDisplay:10.37,2013-09-26 04:36:00,
2013-09-26 00:41:00,45.5,43.6,29.97,NE,48,0.0,0.0,93,0.00,CLR,,0.00,WeatherDisplay:10.37,2013-09-26 04:41:00,
2013-09-26 00:46:00,45.4,43.5,29.97,NE,48,0.0,0.0,93,0.00,CLR,,0.00,WeatherDisplay:10.37,2013-09-26 04:46:00,
2013-09-26 00:51:00,45.3,43.4,29.97,NE,48,0.0,0.0,93,0.00,CLR,,0.00,WeatherDisplay:10.37,2013-09-26 04:51:00,
2013-09-26 00:56:00,45.2,43.3,29.97,NE,48,0.0,0.0,93,0.00,CLR,,0.00,WeatherDisplay:10.37,2013-09-26 04:56:00,
2013-09-26 01:01:00,45.0,43.1,29.97,NE,48,0.0,0.0,93,0.00,CLR,,0.00,WeatherDisplay:10.37,2013-09-26 05:01:00,
2013-09-26 01:06:00,45.0,43.1,29.98,NE,48,0.0,0.0,93,0.00,CLR,,0.00,WeatherDisplay:10.37,2013-09-26 05:06:00,
2013-09-26 01:11:00,45.0,43.1,29.98,NE,48,0.0,0.0,93,0.00,CLR,,0.00,WeatherDisplay:10.37,2013-09-26 05:11:00,
2013-09-26 01:16:00,45.0,43.1,29.97,NE,48,0.0,0.0,93,0.00,CLR,,0.00,WeatherDisplay:10.37,2013-09-26 05:16:00,
2013-09-26 01:21:00,44.9,43.0,29.97,NE,48,0.0,0.0,93,0.00,CLR,,0.00,WeatherDisplay:10.37,2013-09-26 05:21:00,
2013-09-26 01:26:00,44.8,42.9,29.97,NE,48,0.0,0.0,93,0.00,CLR,,0.00,WeatherDisplay:10.37,2013-09-26 05:26:00,
2013-09-26 01:31:00,44.7,42.8,29.97,NE,48,0.0,0.0,93,0.00,CLR,,0.00,WeatherDisplay:10.37,2013-09-26 05:31:00,
2013-09-26 01:36:00,44.6,42.7,29.98,NE,48,0.0,0.0,93,0.00,CLR,,0.00,WeatherDisplay:10.37,2013-09-26 05:36:00,
2013-09-26 01:41:00,44.5,42.6,29.97,NE,48,0.0,0.0,93,0.00,CLR,,0.00,WeatherDisplay:10.37,2013-09-26 05:41:00,
2013-09-26 01:46:00,44.4,42.5,29.98,NE,48,0.0,0.0,93,0.00,CLR,,0.00,WeatherDisplay:10.37,2013-09-26 05:46:00,
2013-09-26 01:51:00,44.3,42.4,29.98,NE,48,0.0,0.0,93,0.00,CLR,,0.00,WeatherDisplay:10.37,2013-09-26 05:51:00,
2013-09-26 01:56:00,44.2,42.3,29.98,NE,48,0.0,0.0,93,0.00,CLR,,0.00,WeatherDisplay:10.37,2013-09-26 05:56:00,
2013-09-26 02:01:00,44.1,42.2,29.98,NE,48,0.0,0.0,93,0.00,CLR,,0.00,WeatherDisplay:10.37,2013-09-26 06:01:00,
2013-09-26 02:06:00,44.2,42.3,29.98,NE,48,0.0,0.0,93,0.00,CLR,,0.00,WeatherDisplay:10.37,2013-09-26 06:06:00,
2013-09-26 02:12:00,44.1,42.2,29.98,NE,48,0.0,0.0,93,0.00,CLR,,0.00,WeatherDisplay:10.37,2013-09-26 06:12:00,
2013-09-26 02:17:00,44.0,42.1,29.98,NE,48,0.0,0.0,93,0.00,CLR,,0.00,WeatherDisplay:10.37,2013-09-26 06:17:00,
2013-09-26 02:22:00,43.9,42.0,29.98,NE,48,0.0,0.0,93,0.00,CLR,,0.00,WeatherDisplay:10.37,2013-09-26 06:22:00,
2013-09-26 02:27:00,43.8,41.9,29.98,NE,48,0.0,0.0,93,0.00,CLR,,0.00,WeatherDisplay:10.37,2013-09-26 06:27:00,
2013-09-26 02:51:00,43.4,41.5,29.98,NE,48,0.0,0.0,93,0.00,CLR,,0.00,WeatherDisplay:10.37,2013-09-26 06:51:00,
2013-09-26 02:56:00,43.4,41.5,29.98,NE,48,0.0,0.0,93,0.00,CLR,,0.00,WeatherDisplay:10.37,2013-09-26 06:56:00,
2013-09-26 03:01:00,43.3,41.4,29.98,NE,48,0.0,0.0,93,0.00,CLR,,0.00,WeatherDisplay:10.37,2013-09-26 07:01:00,
2013-09-26 03:06:00,43.3,41.4,29.98,NE,48,0.0,0.0,93,0.00,CLR,,0.00,WeatherDisplay:10.37,2013-09-26 07:06:00,
2013-09-26 03:11:00,43.2,41.3,29.98,NE,48,0.0,0.0,93,0.00,CLR,,0.00,WeatherDisplay:10.37,2013-09-26 07:11:00,
2013-09-26 03:16:00,43.2,41.3,29.98,NE,48,0.0,0.0,93,0.00,CLR,,0.00,WeatherDisplay:10.37,2013-09-26 07:16:00,
2013-09-26 03:21:00,43.1,41.2,29.98,NE,48,0.0,0.0,93,0.00,CLR,,0.00,WeatherDisplay:10.37,2013-09-26 07:21:00,
2013-09-26 03:26:00,43.0,41.1,29.98,NE,48,0.0,0.0,93,0.00,CLR,,0.00,WeatherDisplay:10.37,2013-09-26 07:26:00,
2013-09-26 03:31:00,42.9,41.0,29.98,NE,48,0.0,0.0,93,0.00,CLR,,0.00,WeatherDisplay:10.37,2013-09-26 07:31:00,
2013-09-26 03:36:00,42.8,40.9,29.99,NE,48,0.0,0.0,93,0.00,CLR,,0.00,WeatherDisplay:10.37,2013-09-26 07:36:00,
2013-09-26 03:41:00,42.7,41.1,29.98,NE,48,0.0,0.0,94,0.00,CLR,,0.00,WeatherDisplay:10.37,2013-09-26 07:41:00,
2013-09-26 03:46:00,42.7,41.1,29.98,NE,48,0.0,0.0,94,0.00,CLR,,0.00,WeatherDisplay:10.37,2013-09-26 07:46:00,
2013-09-26 03:51:00,42.6,40.7,29.99,NE,48,0.0,0.0,93,0.00,CLR,,0.00,WeatherDisplay:10.37,2013-09-26 07:51:00,
2013-09-26 03:56:00,42.5,40.6,29.98,NE,48,0.0,0.0,93,0.00,CLR,,0.00,WeatherDisplay:10.37,2013-09-26 07:56:00,
2013-09-26 04:01:00,42.4,40.5,29.98,NE,48,0.0,0.0,93,0.00,CLR,,0.00,WeatherDisplay:10.37,2013-09-26 08:01:00,
2013-09-26 04:06:00,42.4,40.5,29.98,NE,48,0.0,0.0,93,0.00,CLR,,0.00,WeatherDisplay:10.37,2013-09-26 08:06:00,
2013-09-26 04:11:00,42.3,40.4,29.98,NE,48,0.0,0.0,93,0.00,CLR,,0.00,WeatherDisplay:10.37,2013-09-26 08:11:00,
2013-09-26 04:16:00,42.2,40.3,29.98,NE,48,0.0,0.0,93,0.00,CLR,,0.00,WeatherDisplay:10.37,2013-09-26 08:16:00,
2013-09-26 04:21:00,42.2,40.3,29.98,NE,48,0.0,0.0,93,0.00,CLR,,0.00,WeatherDisplay:10.37,2013-09-26 08:21:00,
2013-09-26 04:26:00,42.1,40.5,29.98,NE,48,0.0,0.0,94,0.00,CLR,,0.00,WeatherDisplay:10.37,2013-09-26 08:26:00,
2013-09-26 04:31:00,42.0,40.4,29.98,NE,48,0.0,0.0,94,0.00,CLR,,0.00,WeatherDisplay:10.37,2013-09-26 08:31:00,
2013-09-26 04:36:00,42.0,40.1,29.98,NE,48,0.0,0.0,93,0.00,CLR,,0.00,WeatherDisplay:10.37,2013-09-26 08:36:00,
2013-09-26 04:41:00,41.9,40.0,29.99,NE,48,0.0,0.0,93,0.00,CLR,,0.00,WeatherDisplay:10.37,2013-09-26 08:41:00,
2013-09-26 04:46:00,41.8,39.9,29.98,NE,48,0.0,0.0,93,0.00,CLR,,0.00,WeatherDisplay:10.37,2013-09-26 08:46:00,
2013-09-26 04:51:00,41.8,39.9,29.99,NE,48,0.0,0.0,93,0.00,CLR,,0.00,WeatherDisplay:10.37,2013-09-26 08:51:00,
2013-09-26 04:56:00,41.7,39.8,29.99,NE,48,0.0,0.0,93,0.00,CLR,,0.00,WeatherDisplay:10.37,2013-09-26 08:56:00,
2013-09-26 05:01:00,41.6,40.0,29.99,NE,48,0.0,0.0,94,0.00,CLR,,0.00,WeatherDisplay:10.37,2013-09-26 09:01:00,
2013-09-26 05:06:00,41.6,40.0,29.99,NE,48,0.0,0.0,94,0.00,CLR,,0.00,WeatherDisplay:10.37,2013-09-26 09:06:00,
2013-09-26 05:11:00,41.5,39.9,29.99,NE,48,0.0,0.0,94,0.00,CLR,,0.00,WeatherDisplay:10.37,2013-09-26 09:11:00,
2013-09-26 05:16:00,41.4,39.8,29.99,NE,48,0.0,0.0,94,0.00,CLR,,0.00,WeatherDisplay:10.37,2013-09-26 09:16:00,
2013-09-26 05:21:00,41.3,39.4,29.99,NE,48,0.0,0.0,93,0.00,CLR,,0.00,WeatherDisplay:10.37,2013-09-26 09:21:00,
2013-09-26 05:26:00,41.2,39.3,29.99,NE,48,0.0,0.0,93,0.00,CLR,,0.00,WeatherDisplay:10.37,2013-09-26 09:26:00,
2013-09-26 05:31:00,41.1,39.2,29.99,NE,48,0.0,0.0,93,0.00,CLR,,0.00,WeatherDisplay:10.37,2013-09-26 09:31:00,
2013-09-26 05:36:00,41.1,39.2,29.99,NE,48,0.0,0.0,93,0.00,CLR,,0.00,WeatherDisplay:10.37,2013-09-26 09:36:00,
2013-09-26 05:41:00,41.1,39.2,30.00,NE,48,0.0,0.0,93,0.00,CLR,,0.00,WeatherDisplay:10.37,2013-09-26 09:41:00,
2013-09-26 05:46:00,41.0,39.4,30.00,NE,48,0.0,0.0,94,0.00,CLR,,0.00,WeatherDisplay:10.37,2013-09-26 09:46:00,
2013-09-26 05:51:00,41.0,39.4,30.00,NE,48,0.0,0.0,94,0.00,CLR,,0.00,WeatherDisplay:10.37,2013-09-26 09:51:00,
2013-09-26 05:56:00,41.0,39.4,30.00,NE,48,0.0,0.0,94,0.00,CLR,,0.00,WeatherDisplay:10.37,2013-09-26 09:56:00,
2013-09-26 06:01:00,41.0,39.4,30.00,NE,48,0.0,0.0,94,0.00,CLR,,0.00,WeatherDisplay:10.37,2013-09-26 10:01:00,
2013-09-26 06:06:00,40.9,39.3,30.00,NE,48,0.0,0.0,94,0.00,CLR,,0.00,WeatherDisplay:10.37,2013-09-26 10:06:00,
2013-09-26 06:11:00,40.9,39.3,30.00,NE,48,0.0,0.0,94,0.00,CLR,,0.00,WeatherDisplay:10.37,2013-09-26 10:11:00,
2013-09-26 06:16:00,40.8,38.9,30.00,NE,48,0.0,0.0,93,0.00,CLR,,0.00,WeatherDisplay:10.37,2013-09-26 10:16:00,
2013-09-26 06:21:00,40.7,38.8,30.00,NE,48,0.0,0.0,93,0.00,CLR,,0.00,WeatherDisplay:10.37,2013-09-26 10:21:00,
2013-09-26 06:26:00,40.6,38.7,30.01,NE,48,0.0,0.0,93,0.00,CLR,,0.00,WeatherDisplay:10.37,2013-09-26 10:26:00,
2013-09-26 06:31:00,40.6,38.7,30.01,NE,48,0.0,0.0,93,0.00,CLR,,0.00,WeatherDisplay:10.37,2013-09-26 10:31:00,
2013-09-26 06:36:00,40.5,38.9,30.01,NE,48,0.0,0.0,94,0.00,CLR,,0.00,WeatherDisplay:10.37,2013-09-26 10:36:00,
2013-09-26 06:41:00,40.5,38.9,30.01,NE,48,0.0,0.0,94,0.00,CLR,,0.00,WeatherDisplay:10.37,2013-09-26 10:41:00,
2013-09-26 06:46:00,40.4,38.8,30.02,NE,48,0.0,0.0,94,0.00,CLR,,0.00,WeatherDisplay:10.37,2013-09-26 10:46:00,
2013-09-26 06:51:00,40.3,38.7,30.02,NE,48,0.0,0.0,94,0.00,CLR,,0.00,WeatherDisplay:10.37,2013-09-26 10:51:00,
2013-09-26 06:56:00,40.2,38.6,30.02,NE,48,0.0,0.0,94,0.00,CLR,,0.00,WeatherDisplay:10.37,2013-09-26 10:56:00,
2013-09-26 07:01:00,40.1,38.2,30.02,NE,48,0.0,0.0,93,0.00,CLR,,0.00,WeatherDisplay:10.37,2013-09-26 11:01:00,
2013-09-26 07:06:00,40.1,38.2,30.02,NE,48,0.0,0.0,93,0.00,CLR,,0.00,WeatherDisplay:10.37,2013-09-26 11:06:00,
2013-09-26 07:11:00,40.0,38.1,30.02,NE,48,0.0,0.0,93,0.00,SCT,,0.00,WeatherDisplay:10.37,2013-09-26 11:11:00,
2013-09-26 07:17:00,40.0,38.1,30.02,NE,48,0.0,0.0,93,0.00,SCT,,0.00,WeatherDisplay:10.37,2013-09-26 11:17:00,
2013-09-26 07:22:00,40.0,38.4,30.03,NE,48,0.0,0.0,94,0.00,SCT,,0.00,WeatherDisplay:10.37,2013-09-26 11:22:00,
2013-09-26 07:27:00,40.1,38.5,30.03,NE,48,0.0,0.0,94,0.00,SCT,,0.00,WeatherDisplay:10.37,2013-09-26 11:27:00,
2013-09-26 07:32:00,40.1,38.5,30.03,NE,48,0.0,0.0,94,0.00,SCT,,0.00,WeatherDisplay:10.37,2013-09-26 11:32:00,
2013-09-26 07:37:00,40.1,38.5,30.03,NE,48,0.0,0.0,94,0.00,SCT,,0.00,WeatherDisplay:10.37,2013-09-26 11:37:00,
2013-09-26 07:42:00,40.1,38.2,30.03,NE,48,0.0,0.0,93,0.00,SCT,,0.00,WeatherDisplay:10.37,2013-09-26 11:42:00,
2013-09-26 07:47:00,40.3,38.7,30.04,NE,48,0.0,0.0,94,0.00,SCT,,0.00,WeatherDisplay:10.37,2013-09-26 11:47:00,
2013-09-26 07:52:00,40.4,38.8,30.04,NE,48,0.0,0.0,94,0.00,SCT,,0.00,WeatherDisplay:10.37,2013-09-26 11:52:00,
2013-09-26 07:57:00,40.7,39.1,30.03,NE,48,0.0,0.0,94,0.00,SCT,,0.00,WeatherDisplay:10.37,2013-09-26 11:57:00,
2013-09-26 08:02:00,40.9,39.3,30.03,NE,48,0.0,0.0,94,0.00,SCT,,0.00,WeatherDisplay:10.37,2013-09-26 12:02:00,
2013-09-26 08:07:00,41.2,39.6,30.03,NE,48,0.0,0.0,94,0.00,SCT,,0.00,WeatherDisplay:10.37,2013-09-26 12:07:00,
2013-09-26 08:12:00,41.6,40.0,30.04,NE,48,0.0,0.0,94,0.00,SCT,,0.00,WeatherDisplay:10.37,2013-09-26 12:12:00,
2013-09-26 08:17:00,42.1,40.5,30.04,NE,48,0.0,0.0,94,0.00,SCT,,0.00,WeatherDisplay:10.37,2013-09-26 12:17:00,
2013-09-26 08:22:00,42.5,40.9,30.04,NE,48,0.0,0.0,94,0.00,SCT,,0.00,WeatherDisplay:10.37,2013-09-26 12:22:00,
2013-09-26 08:27:00,42.9,41.3,30.04,NE,48,0.0,0.0,94,0.00,SCT,,0.00,WeatherDisplay:10.37,2013-09-26 12:27:00,
2013-09-26 08:32:00,43.3,41.7,30.04,NE,48,0.0,0.0,94,0.00,SCT,,0.00,WeatherDisplay:10.37,2013-09-26 12:32:00,
2013-09-26 08:37:00,43.9,42.3,30.04,NE,48,0.0,0.0,94,0.00,SCT,,0.00,WeatherDisplay:10.37,2013-09-26 12:37:00,
2013-09-26 08:42:00,44.4,42.8,30.04,NE,48,0.0,0.0,94,0.00,SCT,,0.00,WeatherDisplay:10.37,2013-09-26 12:42:00,
2013-09-26 08:47:00,45.1,43.5,30.05,NE,48,0.0,0.0,94,0.00,SCT,,0.00,WeatherDisplay:10.37,2013-09-26 12:47:00,
2013-09-26 08:52:00,45.9,44.3,30.05,NE,48,0.0,0.0,94,0.00,SCT,,0.00,WeatherDisplay:10.37,2013-09-26 12:52:00,
2013-09-26 08:57:00,46.6,44.9,30.05,NE,48,0.0,0.0,94,0.00,SCT,,0.00,WeatherDisplay:10.37,2013-09-26 12:57:00,
2013-09-26 09:02:00,47.5,45.9,30.05,NE,48,0.0,0.0,94,0.00,BKN,,0.00,WeatherDisplay:10.37,2013-09-26 13:02:00,
2013-09-26 09:07:00,48.1,46.5,30.05,NE,48,0.0,0.0,94,0.00,BKN,,0.00,WeatherDisplay:10.37,2013-09-26 13:07:00,
2013-09-26 09:12:00,48.6,47.0,30.05,NE,48,0.0,0.0,94,0.00,BKN,,0.00,WeatherDisplay:10.37,2013-09-26 13:12:00,
2013-09-26 09:17:00,49.0,47.3,30.06,NE,38,0.0,0.0,94,0.00,BKN,,0.00,WeatherDisplay:10.37,2013-09-26 13:17:00,
2013-09-26 09:22:00,49.4,47.7,30.06,NE,38,0.0,0.0,94,0.00,BKN,,0.00,WeatherDisplay:10.37,2013-09-26 13:22:00,
2013-09-26 09:27:00,49.8,48.1,30.06,NE,38,0.0,0.0,94,0.00,BKN,,0.00,WeatherDisplay:10.37,2013-09-26 13:27:00,
2013-09-26 09:32:00,50.3,48.6,30.06,NE,37,0.0,0.0,94,0.00,BKN,,0.00,WeatherDisplay:10.37,2013-09-26 13:32:00,
2013-09-26 09:37:00,50.8,49.1,30.06,NE,38,0.0,0.0,94,0.00,BKN,,0.00,WeatherDisplay:10.37,2013-09-26 13:37:00,
2013-09-26 09:42:00,51.2,49.5,30.06,NE,37,0.0,0.0,94,0.00,BKN,,0.00,WeatherDisplay:10.37,2013-09-26 13:42:00,
2013-09-26 09:47:00,51.8,50.1,30.06,NE,38,0.0,0.0,94,0.00,BKN,,0.00,WeatherDisplay:10.37,2013-09-26 13:47:00,
2013-09-26 09:52:00,52.3,50.6,30.06,NE,38,0.0,0.0,94,0.00,BKN,,0.00,WeatherDisplay:10.37,2013-09-26 13:52:00,
2013-09-26 09:57:00,53.0,51.3,30.06,NE,38,0.0,0.0,94,0.00,BKN,,0.00,WeatherDisplay:10.37,2013-09-26 13:57:00,
2013-09-26 10:02:00,53.7,52.0,30.06,NE,37,0.0,0.0,94,0.00,BKN,,0.00,WeatherDisplay:10.37,2013-09-26 14:02:00,
2013-09-26 10:07:00,54.4,52.7,30.06,NE,38,0.0,0.0,94,0.00,BKN,,0.00,WeatherDisplay:10.37,2013-09-26 14:07:00,
2013-09-26 10:12:00,55.1,53.4,30.06,NE,38,0.0,0.0,94,0.00,BKN,,0.00,WeatherDisplay:10.37,2013-09-26 14:12:00,
2013-09-26 10:17:00,56.0,54.3,30.07,NE,37,0.0,0.0,94,0.00,BKN,,0.00,WeatherDisplay:10.37,2013-09-26 14:17:00,
2013-09-26 10:22:00,56.6,54.9,30.06,NE,37,0.0,0.0,94,0.00,BKN,,0.00,WeatherDisplay:10.37,2013-09-26 14:22:00,
2013-09-26 10:27:00,57.5,55.5,30.07,NE,38,0.0,0.0,93,0.00,BKN,,0.00,WeatherDisplay:10.37,2013-09-26 14:27:00,
2013-09-26 10:32:00,58.8,56.8,30.07,NE,38,0.0,0.0,93,0.00,BKN,,0.00,WeatherDisplay:10.37,2013-09-26 14:32:00,
2013-09-26 10:37:00,59.6,57.3,30.06,NE,38,0.1,1.2,92,0.00,BKN,,0.00,WeatherDisplay:10.37,2013-09-26 14:37:00,
2013-09-26 10:42:00,59.7,55.2,30.06,NE,38,0.0,0.0,85,0.00,BKN,,0.00,WeatherDisplay:10.37,2013-09-26 14:42:00,
2013-09-26 10:47:00,60.9,54.3,30.07,NE,38,0.0,0.0,79,0.00,BKN,,0.00,WeatherDisplay:10.37,2013-09-26 14:47:00,
2013-09-26 10:52:00,61.7,51.8,30.07,NE,37,1.4,3.5,70,0.00,BKN,,0.00,WeatherDisplay:10.37,2013-09-26 14:52:00,
2013-09-26 10:57:00,62.2,50.7,30.07,NE,44,3.5,5.8,66,0.00,BKN,,0.00,WeatherDisplay:10.37,2013-09-26 14:57:00,
2013-09-26 11:02:00,62.5,51.0,30.07,NE,46,3.5,4.6,66,0.00,BKN,,0.00,WeatherDisplay:10.37,2013-09-26 15:02:00,
2013-09-26 11:07:00,62.9,52.2,30.06,NNE,14,3.3,4.6,68,0.00,BKN,,0.00,WeatherDisplay:10.37,2013-09-26 15:07:00,
2013-09-26 11:12:00,63.2,50.8,30.07,NNW,342,2.2,3.5,64,0.00,BKN,,0.00,WeatherDisplay:10.37,2013-09-26 15:12:00,
2013-09-26 11:17:00,63.7,51.3,30.07,North,355,1.4,4.6,64,0.00,BKN,,0.00,WeatherDisplay:10.37,2013-09-26 15:17:00,
2013-09-26 11:22:00,64.1,52.1,30.07,NNE,24,1.6,3.5,65,0.00,BKN,,0.00,WeatherDisplay:10.37,2013-09-26 15:22:00,
2013-09-26 11:27:00,64.7,52.2,30.07,North,360,2.3,3.5,64,0.00,BKN,,0.00,WeatherDisplay:10.37,2013-09-26 15:27:00,
2013-09-26 11:32:00,65.2,51.8,30.07,NNW,334,4.3,6.9,62,0.00,BKN,,0.00,WeatherDisplay:10.37,2013-09-26 15:32:00,
2013-09-26 11:38:00,65.3,51.1,30.07,NE,51,4.1,4.6,60,0.00,BKN,,0.00,WeatherDisplay:10.37,2013-09-26 15:38:00,
2013-09-26 11:43:00,65.3,49.7,30.07,NE,36,4.6,5.8,57,0.00,BKN,,0.00,WeatherDisplay:10.37,2013-09-26 15:43:00,
2013-09-26 11:48:00,65.4,49.3,30.07,NE,49,3.3,6.9,56,0.00,BKN,,0.00,WeatherDisplay:10.37,2013-09-26 15:48:00,
2013-09-26 11:53:00,65.4,50.7,30.06,NE,44,3.7,5.8,59,0.00,BKN,,0.00,WeatherDisplay:10.37,2013-09-26 15:53:00,
2013-09-26 11:58:00,65.5,51.2,30.06,NE,44,5.0,6.0,60,0.00,BKN,,0.00,WeatherDisplay:10.37,2013-09-26 15:58:00,
2013-09-26 12:03:00,65.5,51.7,30.06,North,9,6.2,9.2,61,0.00,SCT,,0.00,WeatherDisplay:10.37,2013-09-26 16:03:00,
2013-09-26 12:08:00,65.8,52.0,30.06,NNE,15,3.9,5.8,61,0.00,SCT,,0.00,WeatherDisplay:10.37,2013-09-26 16:08:00,
2013-09-26 12:13:00,66.1,51.8,30.06,North,351,4.2,5.8,60,0.00,SCT,,0.00,WeatherDisplay:10.37,2013-09-26 16:13:00,
2013-09-26 12:18:00,66.3,52.9,30.06,NNE,24,0.1,1.2,62,0.00,SCT,,0.00,WeatherDisplay:10.37,2013-09-26 16:18:00,
2013-09-26 12:23:00,66.5,52.6,30.06,NNE,18,4.8,8.1,61,0.00,SCT,,0.00,WeatherDisplay:10.37,2013-09-26 16:23:00,
2013-09-26 12:28:00,66.6,53.2,30.06,North,11,3.2,5.8,62,0.00,SCT,,0.00,WeatherDisplay:10.37,2013-09-26 16:28:00,
2013-09-26 12:33:00,66.7,52.8,30.06,NE,46,0.5,2.3,61,0.00,SCT,,0.00,WeatherDisplay:10.37,2013-09-26 16:33:00,
2013-09-26 12:38:00,67.1,54.1,30.06,East,98,2.1,4.6,63,0.00,SCT,,0.00,WeatherDisplay:10.37,2013-09-26 16:38:00,
2013-09-26 12:43:00,67.5,54.0,30.06,East,82,2.1,4.6,62,0.00,SCT,,0.00,WeatherDisplay:10.37,2013-09-26 16:43:00,
2013-09-26 12:48:00,67.6,54.1,30.06,NE,38,4.4,6.0,62,0.00,SCT,,0.00,WeatherDisplay:10.37,2013-09-26 16:48:00,
2013-09-26 12:53:00,67.5,53.6,30.06,North,11,3.0,8.1,61,0.00,SCT,,0.00,WeatherDisplay:10.37,2013-09-26 16:53:00,
2013-09-26 12:58:00,67.4,54.4,30.06,NNE,28,3.5,6.9,63,0.00,SCT,,0.00,WeatherDisplay:10.37,2013-09-26 16:58:00,
2013-09-26 13:03:00,67.5,54.5,30.06,NE,53,4.9,9.2,63,0.00,SCT,,0.00,WeatherDisplay:10.37,2013-09-26 17:03:00,
2013-09-26 13:08:00,67.4,54.4,30.06,NE,34,8.0,11.5,63,0.00,SCT,,0.00,WeatherDisplay:10.37,2013-09-26 17:08:00,
2013-09-26 13:13:00,67.2,53.7,30.06,NE,42,4.9,8.1,62,0.00,SCT,,0.00,WeatherDisplay:10.37,2013-09-26 17:13:00,
2013-09-26 13:18:00,67.3,55.1,30.06,NE,46,2.3,7.0,65,0.00,SCT,,0.00,WeatherDisplay:10.37,2013-09-26 17:18:00,
2013-09-26 13:23:00,67.6,56.2,30.06,NE,46,0.4,2.3,67,0.00,SCT,,0.00,WeatherDisplay:10.37,2013-09-26 17:23:00,
2013-09-26 13:28:00,67.9,55.7,30.06,NE,48,1.7,3.5,65,0.00,SCT,,0.00,WeatherDisplay:10.37,2013-09-26 17:28:00,
2013-09-26 13:33:00,68.1,55.5,30.06,ENE,62,1.2,2.3,64,0.00,SCT,,0.00,WeatherDisplay:10.37,2013-09-26 17:33:00,
2013-09-26 13:38:00,68.1,55.0,30.06,ENE,76,0.7,3.5,63,0.00,SCT,,0.00,WeatherDisplay:10.37,2013-09-26 17:38:00,
2013-09-26 13:43:00,68.1,55.0,30.05,NNW,336,2.9,4.6,63,0.00,SCT,,0.00,WeatherDisplay:10.37,2013-09-26 17:43:00,
2013-09-26 13:48:00,67.9,54.8,30.05,ENE,60,5.2,8.1,63,0.00,SCT,,0.00,WeatherDisplay:10.37,2013-09-26 17:48:00,
2013-09-26 13:53:00,67.4,54.8,30.05,NNE,28,5.3,6.9,64,0.00,SCT,,0.00,WeatherDisplay:10.37,2013-09-26 17:53:00,
2013-09-26 13:58:00,67.1,54.9,30.05,NNE,26,2.4,5.8,65,0.00,SCT,,0.00,WeatherDisplay:10.37,2013-09-26 17:58:00,
2013-09-26 14:03:00,67.0,54.8,30.05,NE,34,4.5,6.9,65,0.00,SCT,,0.00,WeatherDisplay:10.37,2013-09-26 18:03:00,
2013-09-26 14:08:00,66.9,54.7,30.05,NNE,29,4.7,5.8,65,0.00,SCT,,0.00,WeatherDisplay:10.37,2013-09-26 18:08:00,
2013-09-26 14:14:00,67.0,55.3,30.05,NNE,29,0.6,0.0,66,0.00,SCT,,0.00,WeatherDisplay:10.37,2013-09-26 18:14:00,
2013-09-26 14:19:00,67.2,55.5,30.05,NNE,33,2.0,8.0,66,0.00,SCT,,0.00,WeatherDisplay:10.37,2013-09-26 18:19:00,
2013-09-26 14:24:00,67.5,55.3,30.05,NNE,27,6.0,7.0,65,0.00,SCT,,0.00,WeatherDisplay:10.37,2013-09-26 18:24:00,
2013-09-26 14:29:00,67.9,56.1,30.05,NNE,18,0.5,4.6,66,0.00,SCT,,0.00,WeatherDisplay:10.37,2013-09-26 18:29:00,
2013-09-26 14:34:00,68.2,56.4,30.05,NNE,29,5.0,6.0,66,0.00,SCT,,0.00,WeatherDisplay:10.37,2013-09-26 18:34:00,
2013-09-26 14:39:00,68.2,54.7,30.05,NE,37,3.0,5.0,62,0.00,SCT,,0.00,WeatherDisplay:10.37,2013-09-26 18:39:00,
2013-09-26 14:44:00,67.9,55.3,30.05,NE,48,0.0,1.0,64,0.00,SCT,,0.00,WeatherDisplay:10.37,2013-09-26 18:44:00,
2013-09-26 14:49:00,67.7,55.5,30.05,NE,41,3.0,7.0,65,0.00,SCT,,0.00,WeatherDisplay:10.37,2013-09-26 18:49:00,
2013-09-26 14:54:00,67.6,55.8,30.05,NNE,15,0.3,4.6,66,0.00,SCT,,0.00,WeatherDisplay:10.37,2013-09-26 18:54:00,
2013-09-26 14:59:00,67.4,55.6,30.05,NNE,28,3.7,4.6,66,0.00,SCT,,0.00,WeatherDisplay:10.37,2013-09-26 18:59:00,
2013-09-26 15:04:00,67.2,55.0,30.05,NNE,24,2.7,4.6,65,0.00,SCT,,0.00,WeatherDisplay:10.37,2013-09-26 19:04:00,
2013-09-26 15:09:00,67.3,56.4,30.05,NNE,24,0.4,0.0,68,0.00,SCT,,0.00,WeatherDisplay:10.37,2013-09-26 19:09:00,
2013-09-26 15:14:00,67.5,55.7,30.05,NNE,24,0.0,1.2,66,0.00,SCT,,0.00,WeatherDisplay:10.37,2013-09-26 19:14:00,
2013-09-26 15:19:00,68.0,55.8,30.05,North,11,6.7,9.2,65,0.00,SCT,,0.00,WeatherDisplay:10.37,2013-09-26 19:19:00,
2013-09-26 15:24:00,68.5,55.0,30.05,NNE,20,6.0,8.1,62,0.00,SCT,,0.00,WeatherDisplay:10.37,2013-09-26 19:24:00,
2013-09-26 15:29:00,68.5,55.0,30.05,North,10,2.3,8.1,62,0.00,SCT,,0.00,WeatherDisplay:10.37,2013-09-26 19:29:00,
2013-09-26 15:34:00,68.4,54.9,30.05,NNE,19,1.9,4.0,62,0.00,SCT,,0.00,WeatherDisplay:10.37,2013-09-26 19:34:00,
2013-09-26 15:39:00,68.6,56.4,30.05,NNE,22,2.6,3.5,65,0.00,SCT,,0.00,WeatherDisplay:10.37,2013-09-26 19:39:00,
2013-09-26 15:44:00,69.2,56.1,30.05,North,5,5.6,6.9,63,0.00,SCT,,0.00,WeatherDisplay:10.37,2013-09-26 19:44:00,
2013-09-26 15:49:00,69.3,55.7,30.05,NNE,30,4.2,5.8,62,0.00,SCT,,0.00,WeatherDisplay:10.37,2013-09-26 19:49:00,
2013-09-26 15:54:00,69.0,55.9,30.05,NE,36,3.0,4.6,63,0.00,SCT,,0.00,WeatherDisplay:10.37,2013-09-26 19:54:00,
2013-09-26 15:59:00,68.5,55.4,30.05,ENE,63,0.4,1.2,63,0.00,SCT,,0.00,WeatherDisplay:10.37,2013-09-26 19:59:00,
2013-09-26 16:04:00,68.1,55.9,30.05,ENE,63,0.1,1.2,65,0.00,SCT,,0.00,WeatherDisplay:10.37,2013-09-26 20:04:00,
2013-09-26 16:09:00,68.6,57.6,30.04,ENE,63,0.0,0.0,68,0.00,SCT,,0.00,WeatherDisplay:10.37,2013-09-26 20:09:00,
2013-09-26 16:14:00,69.4,55.8,30.05,NNW,344,4.3,6.9,62,0.00,SCT,,0.00,WeatherDisplay:10.37,2013-09-26 20:14:00,
2013-09-26 16:19:00,69.7,55.6,30.05,NE,36,3.2,5.0,61,0.00,SCT,,0.00,WeatherDisplay:10.37,2013-09-26 20:19:00,
2013-09-26 16:24:00,69.3,55.7,30.05,North,360,4.0,6.9,62,0.00,SCT,,0.00,WeatherDisplay:10.37,2013-09-26 20:24:00,
2013-09-26 16:29:00,68.8,55.7,30.05,NE,39,2.9,5.8,63,0.00,SCT,,0.00,WeatherDisplay:10.37,2013-09-26 20:29:00,
2013-09-26 16:34:00,68.2,54.7,30.05,NE,38,3.7,5.8,62,0.00,SCT,,0.00,WeatherDisplay:10.37,2013-09-26 20:34:00,
2013-09-26 16:39:00,67.6,55.0,30.06,NE,37,5.1,6.9,64,0.00,SCT,,0.00,WeatherDisplay:10.37,2013-09-26 20:39:00,
2013-09-26 16:44:00,67.4,55.2,30.05,NNE,28,1.8,3.5,65,0.00,SCT,,0.00,WeatherDisplay:10.37,2013-09-26 20:44:00,
2013-09-26 16:49:00,67.2,55.0,30.05,NE,53,3.8,4.6,65,0.00,SCT,,0.00,WeatherDisplay:10.37,2013-09-26 20:49:00,
2013-09-26 16:55:00,67.2,55.0,30.05,NE,43,3.7,5.8,65,0.00,SCT,,0.00,WeatherDisplay:10.37,2013-09-26 20:55:00,
2013-09-26 17:00:00,67.6,54.6,30.05,North,5,3.9,5.8,63,0.00,SCT,,0.00,WeatherDisplay:10.37,2013-09-26 21:00:00,
2013-09-26 17:05:00,68.0,54.9,30.05,North,10,4.6,8.1,63,0.00,SCT,,0.00,WeatherDisplay:10.37,2013-09-26 21:05:00,
2013-09-26 17:10:00,68.1,54.1,30.05,North,360,6.0,8.1,61,0.00,SCT,,0.00,WeatherDisplay:10.37,2013-09-26 21:10:00,
2013-09-26 17:15:00,68.0,54.5,30.06,NNE,29,5.2,8.1,62,0.00,SCT,,0.00,WeatherDisplay:10.37,2013-09-26 21:15:00,
2013-09-26 17:20:00,68.0,54.5,30.06,North,11,3.1,5.8,62,0.00,SCT,,0.00,WeatherDisplay:10.37,2013-09-26 21:20:00,
2013-09-26 17:25:00,68.0,54.5,30.06,NNE,23,3.9,4.6,62,0.00,SCT,,0.00,WeatherDisplay:10.37,2013-09-26 21:25:00,
2013-09-26 17:30:00,68.0,54.9,30.06,NE,45,3.6,5.8,63,0.00,SCT,,0.00,WeatherDisplay:10.37,2013-09-26 21:30:00,
2013-09-26 17:35:00,68.1,54.6,30.06,NE,40,2.5,6.9,62,0.00,SCT,,0.00,WeatherDisplay:10.37,2013-09-26 21:35:00,
2013-09-26 17:40:00,67.9,54.4,30.06,ENE,64,1.4,6.9,62,0.00,SCT,,0.00,WeatherDisplay:10.37,2013-09-26 21:40:00,
2013-09-26 17:45:00,67.8,54.7,30.06,NE,40,1.3,3.5,63,0.00,SCT,,0.00,WeatherDisplay:10.37,2013-09-26 21:45:00,
2013-09-26 17:50:00,67.9,54.8,30.07,NE,37,2.6,4.6,63,0.00,SCT,,0.00,WeatherDisplay:10.37,2013-09-26 21:50:00,
2013-09-26 17:55:00,67.6,53.7,30.07,NNE,24,3.3,5.0,61,0.00,SCT,,0.00,WeatherDisplay:10.37,2013-09-26 21:55:00,
2013-09-26 18:00:00,67.4,53.5,30.07,NNE,33,3.8,6.9,61,0.00,SCT,,0.00,WeatherDisplay:10.37,2013-09-26 22:00:00,
2013-09-26 18:05:00,67.3,53.8,30.07,NNE,23,1.2,3.5,62,0.00,SCT,,0.00,WeatherDisplay:10.37,2013-09-26 22:05:00,
2013-09-26 18:11:00,67.1,53.6,30.08,NE,51,3.9,6.9,62,0.00,SCT,,0.00,WeatherDisplay:10.37,2013-09-26 22:11:00,
2013-09-26 18:16:00,67.0,54.4,30.08,NNE,28,1.0,3.0,64,0.00,SCT,,0.00,WeatherDisplay:10.37,2013-09-26 22:16:00,
2013-09-26 18:21:00,66.8,54.2,30.08,NNE,19,0.0,2.0,64,0.00,SCT,,0.00,WeatherDisplay:10.37,2013-09-26 22:21:00,
2013-09-26 18:26:00,66.6,55.3,30.08,NNE,18,1.0,4.0,67,0.00,SCT,,0.00,WeatherDisplay:10.37,2013-09-26 22:26:00,
2013-09-26 18:31:00,66.2,55.7,30.08,NNE,19,0.5,3.5,69,0.00,SCT,,0.00,WeatherDisplay:10.37,2013-09-26 22:31:00,
2013-09-26 18:36:00,65.6,55.9,30.08,NNE,20,1.2,2.3,71,0.00,SCT,,0.00,WeatherDisplay:10.37,2013-09-26 22:36:00,
2013-09-26 18:41:00,65.0,56.2,30.08,NNE,20,0.0,1.0,73,0.00,SCT,,0.00,WeatherDisplay:10.37,2013-09-26 22:41:00,
2013-09-26 18:46:00,64.1,55.6,30.08,NNE,20,0.0,0.0,74,0.00,SCT,,0.00,WeatherDisplay:10.37,2013-09-26 22:46:00,
2013-09-26 18:51:00,63.1,55.4,30.08,NNE,20,0.0,0.0,76,0.00,SCT,,0.00,WeatherDisplay:10.37,2013-09-26 22:51:00,
2013-09-26 18:56:00,62.6,55.3,30.08,NNE,19,0.0,0.0,77,0.00,SCT,,0.00,WeatherDisplay:10.37,2013-09-26 22:56:00,
2013-09-26 19:01:00,62.0,55.1,30.08,NNE,20,0.0,0.0,78,0.00,SCT,,0.00,WeatherDisplay:10.37,2013-09-26 23:01:00,
2013-09-26 19:06:00,61.4,54.5,30.08,NNE,20,0.0,0.0,78,0.00,SCT,,0.00,WeatherDisplay:10.37,2013-09-26 23:06:00,
2013-09-26 19:11:00,60.7,54.1,30.08,NNE,20,0.0,0.0,79,0.00,SCT,,0.00,WeatherDisplay:10.37,2013-09-26 23:11:00,
2013-09-26 19:16:00,60.0,53.5,30.08,NNE,20,0.0,0.0,79,0.00,SCT,,0.00,WeatherDisplay:10.37,2013-09-26 23:16:00,
2013-09-26 19:21:00,59.1,52.9,30.08,NNE,20,0.0,0.0,80,0.00,SCT,,0.00,WeatherDisplay:10.37,2013-09-26 23:21:00,
2013-09-26 19:26:00,58.8,52.6,30.08,NNE,20,0.0,0.0,80,0.00,SCT,,0.00,WeatherDisplay:10.37,2013-09-26 23:26:00,
2013-09-26 19:31:00,58.0,51.9,30.08,NNE,20,0.0,0.0,80,0.00,SCT,,0.00,WeatherDisplay:10.37,2013-09-26 23:31:00,
2013-09-26 19:36:00,57.4,51.9,30.08,NNE,20,0.0,0.0,82,0.00,SCT,,0.00,WeatherDisplay:10.37,2013-09-26 23:36:00,
2013-09-26 19:41:00,56.8,51.4,30.08,NNE,20,0.0,0.0,82,0.00,SCT,,0.00,WeatherDisplay:10.37,2013-09-26 23:41:00,
2013-09-26 19:46:00,56.2,51.1,30.08,NNE,20,0.0,0.0,83,0.00,SCT,,0.00,WeatherDisplay:10.37,2013-09-26 23:46:00,
2013-09-26 19:51:00,55.6,50.8,30.08,NNE,20,0.0,0.0,84,0.00,SCT,,0.00,WeatherDisplay:10.37,2013-09-26 23:51:00,
2013-09-26 19:56:00,55.1,50.7,30.08,NNE,19,0.0,0.0,85,0.00,SCT,,0.00,WeatherDisplay:10.37,2013-09-26 23:56:00,
2013-09-26 20:01:00,54.8,50.7,30.08,NNE,20,0.0,0.0,86,0.00,CLR,,0.00,WeatherDisplay:10.37,2013-09-27 00:01:00,
2013-09-26 20:06:00,54.5,50.7,30.08,NNE,20,0.0,0.0,87,0.00,CLR,,0.00,WeatherDisplay:10.37,2013-09-27 00:06:00,
2013-09-26 20:11:00,54.1,50.3,30.09,NNE,20,0.0,0.0,87,0.00,CLR,,0.00,WeatherDisplay:10.37,2013-09-27 00:11:00,
2013-09-26 20:16:00,53.8,50.3,30.09,NNE,20,0.0,0.0,88,0.00,CLR,,0.00,WeatherDisplay:10.37,2013-09-27 00:16:00,
2013-09-26 20:21:00,53.5,50.0,30.09,NNE,20,0.0,0.0,88,0.00,CLR,,0.00,WeatherDisplay:10.37,2013-09-27 00:21:00,
2013-09-26 20:26:00,53.2,49.7,30.09,NNE,19,0.0,0.0,88,0.00,CLR,,0.00,WeatherDisplay:10.37,2013-09-27 00:26:00,
2013-09-26 20:31:00,52.8,49.3,30.09,NNE,20,0.0,0.0,88,0.00,CLR,,0.00,WeatherDisplay:10.37,2013-09-27 00:31:00,
2013-09-26 20:36:00,52.5,49.4,30.09,NNE,19,0.0,0.0,89,0.00,CLR,,0.00,WeatherDisplay:10.37,2013-09-27 00:36:00,
2013-09-26 20:41:00,52.3,49.2,30.10,NNE,19,0.0,0.0,89,0.00,CLR,,0.00,WeatherDisplay:10.37,2013-09-27 00:41:00,
2013-09-26 20:46:00,52.3,49.5,30.10,NNE,20,0.0,0.0,90,0.00,CLR,,0.00,WeatherDisplay:10.37,2013-09-27 00:46:00,
2013-09-26 20:51:00,52.2,49.4,30.10,NNE,19,0.0,0.0,90,0.00,CLR,,0.00,WeatherDisplay:10.37,2013-09-27 00:51:00,
2013-09-26 20:56:00,52.0,49.2,30.10,NNE,20,0.0,0.0,90,0.00,CLR,,0.00,WeatherDisplay:10.37,2013-09-27 00:56:00,
2013-09-26 21:01:00,51.7,48.9,30.09,NNE,20,0.0,0.0,90,0.00,CLR,,0.00,WeatherDisplay:10.37,2013-09-27 01:01:00,
2013-09-26 21:06:00,51.6,48.8,30.10,NNE,19,0.0,0.0,90,0.00,CLR,,0.00,WeatherDisplay:10.37,2013-09-27 01:06:00,
2013-09-26 21:11:00,51.7,49.2,30.10,NNE,20,0.0,0.0,91,0.00,CLR,,0.00,WeatherDisplay:10.37,2013-09-27 01:11:00,
2013-09-26 21:16:00,51.7,49.2,30.10,NNE,19,0.0,0.0,91,0.00,CLR,,0.00,WeatherDisplay:10.37,2013-09-27 01:16:00,
2013-09-26 21:21:00,51.6,49.1,30.10,NNE,20,0.0,0.0,91,0.00,CLR,,0.00,WeatherDisplay:10.37,2013-09-27 01:21:00,
2013-09-26 21:26:00,51.4,48.9,30.10,NNE,19,0.0,0.0,91,0.00,CLR,,0.00,WeatherDisplay:10.37,2013-09-27 01:26:00,
2013-09-26 21:31:00,51.2,48.7,30.10,NNE,20,0.0,0.0,91,0.00,CLR,,0.00,WeatherDisplay:10.37,2013-09-27 01:31:00,
2013-09-26 21:36:00,51.2,48.7,30.10,NNE,20,0.0,0.0,91,0.00,CLR,,0.00,WeatherDisplay:10.37,2013-09-27 01:36:00,
2013-09-26 21:42:00,51.2,48.7,30.10,NNE,19,0.0,0.0,91,0.00,CLR,,0.00,WeatherDisplay:10.37,2013-09-27 01:42:00,
2013-09-26 21:47:00,51.2,48.7,30.10,NNE,20,0.0,0.0,91,0.00,CLR,,0.00,WeatherDisplay:10.37,2013-09-27 01:47:00,
2013-09-26 21:52:00,51.1,48.9,30.11,NNE,19,0.0,0.0,92,0.00,CLR,,0.00,WeatherDisplay:10.37,2013-09-27 01:52:00,
2013-09-26 21:57:00,51.0,48.8,30.11,NNE,19,0.0,0.0,92,0.00,CLR,,0.00,WeatherDisplay:10.37,2013-09-27 01:57:00,
2013-09-26 22:02:00,50.9,48.7,30.11,NNE,20,0.0,0.0,92,0.00,CLR,,0.00,WeatherDisplay:10.37,2013-09-27 02:02:00,
2013-09-26 22:07:00,50.8,48.6,30.11,NNE,20,0.0,0.0,92,0.00,CLR,,0.00,WeatherDisplay:10.37,2013-09-27 02:07:00,
2013-09-26 22:12:00,50.6,48.4,30.11,NNE,20,0.0,0.0,92,0.00,CLR,,0.00,WeatherDisplay:10.37,2013-09-27 02:12:00,
2013-09-26 22:17:00,50.4,48.2,30.11,NNE,20,0.0,0.0,92,0.00,CLR,,0.00,WeatherDisplay:10.37,2013-09-27 02:17:00,
2013-09-26 22:22:00,50.1,47.9,30.11,NNE,20,0.0,0.0,92,0.00,CLR,,0.00,WeatherDisplay:10.37,2013-09-27 02:22:00,
2013-09-26 22:27:00,50.0,47.8,30.11,NNE,20,0.0,0.0,92,0.00,CLR,,0.00,WeatherDisplay:10.37,2013-09-27 02:27:00,
2013-09-26 22:32:00,49.9,47.7,30.11,NNE,20,0.0,0.0,92,0.00,CLR,,0.00,WeatherDisplay:10.37,2013-09-27 02:32:00,
2013-09-26 22:37:00,50.0,47.8,30.11,NNE,19,0.0,0.0,92,0.00,CLR,,0.00,WeatherDisplay:10.37,2013-09-27 02:37:00,
2013-09-26 22:42:00,50.1,47.9,30.11,NNE,19,0.0,0.0,92,0.00,CLR,,0.00,WeatherDisplay:10.37,2013-09-27 02:42:00,
2013-09-26 22:47:00,50.2,48.0,30.11,NNE,20,0.0,0.0,92,0.00,CLR,,0.00,WeatherDisplay:10.37,2013-09-27 02:47:00,
2013-09-26 22:52:00,50.1,47.9,30.11,NNE,20,0.0,0.0,92,0.00,CLR,,0.00,WeatherDisplay:10.37,2013-09-27 02:52:00,
2013-09-26 22:57:00,50.0,47.8,30.11,NNE,19,0.0,0.0,92,0.00,CLR,,0.00,WeatherDisplay:10.37,2013-09-27 02:57:00,
2013-09-26 23:02:00,50.0,47.8,30.11,NNE,20,0.0,0.0,92,0.00,CLR,,0.00,WeatherDisplay:10.37,2013-09-27 03:02:00,
2013-09-26 23:07:00,49.8,47.6,30.11,NNE,20,0.0,0.0,92,0.00,CLR,,0.00,WeatherDisplay:10.37,2013-09-27 03:07:00,
2013-09-26 23:12:00,49.7,47.5,30.12,NNE,19,0.0,0.0,92,0.00,CLR,,0.00,WeatherDisplay:10.37,2013-09-27 03:12:00,
2013-09-26 23:17:00,49.6,47.4,30.11,NNE,19,0.0,0.0,92,0.00,CLR,,0.00,WeatherDisplay:10.37,2013-09-27 03:17:00,
2013-09-26 23:22:00,49.6,47.7,30.12,NNE,19,0.0,0.0,93,0.00,CLR,,0.00,WeatherDisplay:10.37,2013-09-27 03:22:00,
2013-09-26 23:27:00,49.5,47.6,30.12,NNE,20,0.0,0.0,93,0.00,CLR,,0.00,WeatherDisplay:10.37,2013-09-27 03:27:00,
2013-09-26 23:32:00,49.3,47.4,30.12,NNE,19,0.0,0.0,93,0.00,CLR,,0.00,WeatherDisplay:10.37,2013-09-27 03:32:00,
2013-09-26 23:37:00,49.2,47.3,30.12,NNE,20,0.0,0.0,93,0.00,CLR,,0.00,WeatherDisplay:10.37,2013-09-27 03:37:00,
2013-09-26 23:42:00,49.0,46.8,30.12,NNE,20,0.0,0.0,92,0.00,CLR,,0.00,WeatherDisplay:10.37,2013-09-27 03:42:00,
2013-09-26 23:47:00,49.0,47.1,30.12,NNE,20,0.0,0.0,93,0.00,CLR,,0.00,WeatherDisplay:10.37,2013-09-27 03:47:00,
2013-09-26 23:52:00,49.1,47.2,30.12,NNE,20,0.0,0.0,93,0.00,CLR,,0.00,WeatherDisplay:10.37,2013-09-27 03:52:00,
2013-09-26 23:57:00,49.1,47.2,30.12,NNE,19,0.0,0.0,93,0.00,CLR,,0.00,WeatherDisplay:10.37,2013-09-27 03:57:00,